Flag for Australia Weather past 2 weeks in Toowoomba, Queensland, Australia

Now
61 °F

Refreshingly cool.


Feels Like: 61 °F
Forecast: 51 / 72 °F
Wind: 6 mph from South

Location: Oakey Aerodrome


UV Index: 5 (Moderate)

Visibility: N/A


Pressure: 29.99 "Hg

Humidity: 53%

Dew point: 44 °F

Location of ToowoombaLocation

Historic Weather in Toowoomba

°F

Toowoomba temperature yesterday

Maximum temperature yesterday: 78 °F (at 3:00 PM)
Minimum temperature yesterday: 50 °F (at 1:00 AM)
Average temperature yesterday: 65 °F

Past Weeks' High & Low Weather Summary

 TemperatureHumidityPressure
High81 °F (Apr 11, 3:00 PM)98% (Apr 13, 6:00 AM)30.13 "Hg (Apr 13, 6:00 AM)
Low42 °F (Apr 19, 6:00 AM)25% (Apr 18, 4:00 PM)29.75 "Hg (Apr 11, 3:00 PM)
Average65 °F73%29.97 "Hg
* Reported Apr 4 7:00 PM — Apr 19 7:00 PM, Toowoomba, Weather by CustomWeather, © 2014

Note: Actual official high and low records may vary slightly from our data, if they occured in-between our weather recording intervals... More about our weather records

Advertising

Historic Weather Conditions — Data for Previous 24 hours

 ConditionsComfort  
Time TempWeatherWind HumidityBarometerVisibility
7:00 PM
Apr 19
61 °FRefreshingly cool.6 mph53%29.99 "HgN/A
6:00 PM67 °FMild.7 mph42%29.96 "HgN/A
4:00 PM77 °FPleasantly warm.12 mph27%29.93 "HgN/A
3:00 PM78 °FPleasantly warm.12 mph28%29.93 "HgN/A
1:00 PM76 °FMild.13 mph32%29.96 "HgN/A
12:00 PM76 °FMild.13 mph33%29.99 "HgN/A
10:00 AM68 °FMild.5 mph43%30.05 "HgN/A
9:00 AM64 °FMild.No wind54%30.06 "HgN/A
7:00 AM47 °FCool.5 mph92%30.05 "HgN/A
6:00 AM42 °FQuite cool.6 mph92%30.03 "HgN/A
4:00 AM43 °FQuite cool.5 mph92%30.01 "HgN/A
3:00 AM44 °FQuite cool.2 mph90%30.01 "HgN/A
1:00 AM47 °FCool.5 mph86%30.03 "HgN/A
12:00 AM47 °FCool.6 mph85%30.02 "HgN/A
10:00 PM
Apr 18
53 °FCool.6 mph73%30.03 "HgN/A
9:00 PM54 °FCool.3 mph73%30.02 "HgN/A
Weather by CustomWeather, © 2014

See weather overview